Date String (YYYY-MM-DD hh:mm:ss) UTC,Instrument flags,Ambient pressure (hPa),Sample flow (lpm),Bypass flow (lpm),Sample temperature (°C),Ambient temperature (°C),ASC tube jacket temperature (°C),LED temperature (°C),Box temperature (°C),Sample RH (%),Span deviation,Mass concentration (μg/m³),Mass concentration (μg/m³),Mass concentration (μg/m³)
DateTimeUTC,F1_M11,P_M11,Q1_M11,Q2_M11,T1_M11,T2_M11,T3_M11,T4_M11,T5_M11,U1_M11,ZSPAN_M11,X0_M11,X2_M11,X1_M11
2022-06-04 01:00:00,,0821.8,4.97,0.00,29.4,26.9,00.0,38.3,31.1,22.9,0000.0,0008.72,0003.22,0002.33
2022-06-04 01:01:00,,0821.8,5.01,0.00,29.3,27.1,00.0,38.3,31.1,22.7,0000.0,0008.15,0003.20,0002.30
2022-06-04 01:02:00,,0821.8,4.99,0.00,29.3,27.3,00.0,38.3,31.1,22.0,0000.0,0008.33,0003.19,0002.28
2022-06-04 01:03:00,,0821.8,4.99,0.00,29.3,27.4,00.0,38.2,31.1,24.8,0000.0,0008.23,0003.20,0002.28
2022-06-04 01:04:00,,0821.8,5.01,0.00,29.3,27.6,00.0,38.2,31.2,25.2,0000.0,0008.11,0003.24,0002.30
2022-06-04 01:05:00,,0821.8,4.99,0.00,29.3,27.8,00.0,38.2,31.2,23.7,0000.0,0007.56,0003.28,0002.31
2022-06-04 01:06:00,,0821.8,5.00,0.00,29.3,28.0,00.0,38.2,31.3,22.4,0000.0,0007.62,0003.30,0002.34
2022-06-04 01:07:00,,0821.8,5.01,0.00,29.4,28.1,00.0,38.2,31.3,22.9,0000.0,0007.62,0003.31,0002.37
2022-06-04 01:08:00,,0821.8,5.00,0.00,29.4,28.2,00.0,38.3,31.3,23.5,0000.0,0007.71,0003.36,0002.40
2022-06-04 01:09:00,,0821.9,5.00,0.00,29.4,28.3,00.0,38.3,31.4,25.2,0000.0,0007.65,0003.36,0002.44
2022-06-04 01:10:00,,0821.9,4.99,0.00,29.4,28.4,00.0,38.3,31.4,24.6,0000.0,0007.59,0003.33,0002.46
2022-06-04 01:11:00,,0822.0,4.99,0.00,29.5,28.5,00.0,38.3,31.4,25.0,0000.0,0007.52,0003.32,0002.48
2022-06-04 01:12:00,,0822.0,5.00,0.00,29.5,28.6,00.0,38.3,31.5,23.5,0000.0,0007.57,0003.35,0002.50
2022-06-04 01:13:00,,0822.0,5.01,0.00,29.5,28.7,00.0,38.3,31.5,23.8,0000.0,0006.71,0003.33,0002.50
2022-06-04 01:14:00,,0822.0,5.01,0.00,29.6,28.7,00.0,38.4,31.6,23.6,0000.0,0006.51,0003.29,0002.46
2022-06-04 01:15:00,,0822.0,5.00,0.00,29.6,28.8,00.0,38.4,31.6,23.8,0000.0,0007.10,0003.25,0002.44
2022-06-04 01:16:00,,0822.0,4.99,0.00,29.6,28.9,00.0,38.4,31.7,24.1,0000.0,0007.72,0003.21,0002.40
2022-06-04 01:17:00,,0822.0,5.00,0.00,29.7,28.9,00.0,38.4,31.7,23.9,0000.0,0007.66,0003.18,0002.37
2022-06-04 01:18:00,,0822.0,5.02,0.00,29.7,29.0,00.0,38.5,31.7,24.2,0000.0,0007.60,0003.14,0002.33
2022-06-04 01:19:00,,0822.1,4.99,0.00,29.8,29.0,00.0,38.5,31.7,24.3,0000.0,0007.42,0003.08,0002.29
2022-06-04 01:20:00,,0822.1,5.01,0.00,29.8,28.4,00.0,38.4,31.6,23.2,0000.0,0006.90,0003.03,0002.26
2022-06-04 01:21:00,,0822.0,5.00,0.00,29.7,27.7,00.0,38.4,31.4,22.5,0000.0,0006.97,0003.01,0002.24
2022-06-04 01:22:00,,0821.9,5.00,0.00,29.6,27.5,00.0,38.4,31.3,22.7,0000.0,0007.50,0003.02,0002.24
2022-06-04 01:23:00,,0821.9,5.00,0.00,29.6,27.5,00.0,38.4,31.3,23.1,0000.0,0007.48,0002.96,0002.19
2022-06-04 01:24:00,,0821.9,5.01,0.00,29.5,27.6,00.0,38.4,31.3,22.9,0000.0,0007.45,0002.93,0002.18
2022-06-04 01:25:00,,0821.9,5.00,0.00,29.5,27.8,00.0,38.4,31.3,23.3,0000.0,0007.52,0002.95,0002.20
2022-06-04 01:26:00,,0821.8,5.00,0.00,29.5,27.9,00.0,38.4,31.4,23.4,0000.0,0006.48,0002.91,0002.20
2022-06-04 01:27:00,,0821.8,5.00,0.00,29.5,28.1,00.0,38.4,31.4,23.4,0000.0,0005.56,0002.92,0002.20
2022-06-04 01:28:00,,0822.0,5.00,0.00,29.5,28.2,00.0,38.4,31.4,23.1,0000.0,0005.45,0002.89,0002.20
2022-06-04 01:29:00,,0821.8,5.00,0.00,29.6,28.3,00.0,38.4,31.5,22.7,0000.0,0005.49,0002.89,0002.20
2022-06-04 01:30:00,,0821.8,5.00,0.00,29.6,28.4,00.0,38.4,31.5,22.3,0000.0,0005.56,0002.93,0002.21
2022-06-04 01:31:00,,0821.8,4.99,0.00,29.6,28.6,00.0,38.4,31.6,21.9,0000.0,0006.54,0002.99,0002.23
2022-06-04 01:32:00,,0821.8,4.99,0.00,29.6,28.6,00.0,38.4,31.6,21.9,0000.0,0006.85,0003.04,0002.24
2022-06-04 01:33:00,,0821.8,5.00,0.00,29.7,28.7,00.0,38.4,31.6,21.8,0000.0,0006.16,0003.04,0002.21
2022-06-04 01:34:00,,0821.7,5.01,0.00,29.7,28.8,00.0,38.5,31.7,23.9,0000.0,0006.21,0003.05,0002.20
2022-06-04 01:35:00,,0821.8,4.99,0.00,29.7,28.9,00.0,38.5,31.7,24.1,0000.0,0007.36,0003.09,0002.19
2022-06-04 01:36:00,,0821.8,5.00,0.00,29.8,28.9,00.0,38.5,31.7,23.6,0000.0,0007.23,0003.06,0002.16
2022-06-04 01:37:00,,0821.8,5.00,0.00,29.8,28.8,00.0,38.5,31.7,23.9,0000.0,0007.22,0003.06,0002.12
2022-06-04 01:38:00,,0821.8,5.01,0.00,29.7,28.0,00.0,38.5,31.5,23.8,0000.0,0007.21,0003.01,0002.09
2022-06-04 01:39:00,,0821.7,4.99,0.00,29.7,27.6,00.0,38.4,31.4,23.9,0000.0,0007.08,0002.94,0002.07
2022-06-04 01:40:00,,0821.7,5.00,0.00,29.6,27.5,00.0,38.4,31.3,23.3,0000.0,0006.93,0002.89,0002.05
2022-06-04 01:41:00,,0821.7,4.99,0.00,29.5,27.5,00.0,38.4,31.3,23.1,0000.0,0006.91,0002.87,0002.03
2022-06-04 01:42:00,,0821.6,4.99,0.00,29.5,27.7,00.0,38.4,31.3,23.1,0000.0,0005.96,0002.78,0002.01
2022-06-04 01:43:00,,0821.7,5.01,0.00,29.5,27.8,00.0,38.4,31.3,23.0,0000.0,0005.31,0002.72,0001.97
2022-06-04 01:44:00,,0821.7,5.00,0.00,29.5,28.0,00.0,38.4,31.4,23.3,0000.0,0005.29,0002.69,0001.95
2022-06-04 01:45:00,,0821.7,5.00,0.00,29.5,28.1,00.0,38.4,31.4,23.6,0000.0,0005.28,0002.66,0001.95
2022-06-04 01:46:00,,0821.7,5.00,0.00,29.6,28.3,00.0,38.4,31.5,23.4,0000.0,0004.18,0002.65,0001.92
2022-06-04 01:47:00,,0821.7,5.00,0.00,29.6,28.4,00.0,38.4,31.5,22.8,0000.0,0004.20,0002.67,0001.92
2022-06-04 01:48:00,,0821.7,4.99,0.00,29.6,28.5,00.0,38.4,31.5,22.6,0000.0,0004.11,0002.63,0001.94
2022-06-04 01:49:00,,0821.7,5.00,0.00,29.6,28.6,00.0,38.4,31.6,22.5,0000.0,0004.09,0002.64,0001.94
2022-06-04 01:50:00,,0821.7,4.99,0.00,29.7,28.7,00.0,38.5,31.6,22.6,0000.0,0004.11,0002.66,0001.95
2022-06-04 01:51:00,,0821.7,5.01,0.00,29.7,28.8,00.0,38.5,31.7,22.8,0000.0,0004.17,0002.70,0001.95
2022-06-04 01:52:00,,0821.7,5.00,0.00,29.7,28.8,00.0,38.5,31.7,22.9,0000.0,0004.14,0002.70,0001.94
2022-06-04 01:53:00,,0821.8,5.00,0.00,29.8,28.9,00.0,38.5,31.7,22.7,0000.0,0004.15,0002.70,0001.94
2022-06-04 01:54:00,,0821.8,5.00,0.00,29.8,29.0,00.0,38.5,31.8,22.7,0000.0,0004.14,0002.69,0001.94
2022-06-04 01:55:00,,0821.8,4.99,0.00,29.8,28.5,00.0,38.5,31.6,21.8,0000.0,0004.03,0002.65,0001.96
2022-06-04 01:56:00,,0821.8,5.00,0.00,29.7,27.7,00.0,38.5,31.4,21.5,0000.0,0004.14,0002.70,0001.98
2022-06-04 01:57:00,,0821.8,5.01,0.00,29.7,27.4,00.0,38.4,31.3,21.5,0000.0,0004.13,0002.73,0002.02
2022-06-04 01:58:00,,0821.8,5.00,0.00,29.6,27.4,00.0,38.4,31.3,21.2,0000.0,0004.14,0002.76,0002.07
2022-06-04 01:59:00,,0821.8,4.99,0.00,29.5,27.5,00.0,38.4,31.3,21.4,0000.0,0004.21,0002.79,0002.10
